Powrót do katalogu

COSMOS 2279

AktywnyMilitariaPO
NORAD 23092·PAYLOAD·🇷🇺 Russia

Wystrzelony Apr 26, 1994 z Plesetsk Cosmodrome

Loading…

Następne Przeloty (najbliższe 24 godziny)

TLE

ŚwieżeSource: Space-Track

Epoka: Sep 14, 2026, 09:53 UTC

1 23092U 94024A   26257.41205544  .00000072  00000-0  57384-4 0  9992
2 23092  82.9513 148.5482 0035366   4.0447 356.0989 13.76653423626330

Śledź COSMOS 2279 w czasie rzeczywistym z AllMySat

Download on the App Store